Atoka, OK

12:40 PM CST on December 14, 2019 (GMT -0600)
Atoka Municipal

Weather History for KAQR - November, 2019

Change the Weather History Date:

Saturday, November 16, 2019

  Actual Average (WUND) Record (WUND)
Temperature  
Mean Temperature 42 °F -  
Max Temperature 55 °F - - (-1)
Min Temperature 28 °F - - (-1)
Degree Days  
Heating Degree Days 24    
Moisture  
Dew Point 29 °F    
Average Humidity 70    
Maximum Humidity 100    
Minimum Humidity 36    
Precipitation  
Precipitation 0.00 in - - ()
Sea Level Pressure  
Sea Level Pressure 30.24 in    
Wind  
Wind Speed 1 mph (SSE)    
Max Wind Speed 10 mph    
Max Gust Speed -    
Visibility 10 miles    
Events      
Averages and records for this station are not official NWS values.
T = Trace of Precipitation, MM = Missing Value Source: NWS Daily Summary

Daily Weather History Graph

Daily Weather History Graph

Search for Another Location

Airport or City:

Astronomy

Nov. 16, 2019 Rise Set
Actual Time 6:58 AM CST 5:19 PM CST
Civil Twilight 6:31 AM CST 5:46 PM CST
Nautical Twilight 6:01 AM CST 6:16 PM CST
Astronomical Twilight 5:31 AM CST 6:46 PM CST
Moon 8:58 PM CST (11/16) 10:48 AM CST (11/16)
Length of Visible Light 11h 14m
Length of Day
10h 21m
Waning Gibbous, 82% of the Moon is Illuminated
Nov 16
Waning Gibbous
Nov 19
Last Quarter
Nov 26
New
Dec 4
First Quarter
Dec 11
Full

Hourly Weather History & Observations

Time (CST) Temp. Windchill Dew Point Humidity Pressure Visibility Wind Dir Wind Speed Gust Speed Precip Events Conditions
12:35 AM 30.2 °F - 28.4 °F 93% 30.35 in 10.0 mi Calm Calm - N/A   Clear
12:50 AM 30.2 °F - 28.4 °F 93% 30.34 in 10.0 mi Calm Calm - N/A   Clear
1:15 AM 28.4 °F - 28.4 °F 100% 30.33 in 10.0 mi Calm Calm - N/A   Clear
1:35 AM 28.4 °F - 28.4 °F 100% 30.33 in 10.0 mi Calm Calm - N/A   Clear
1:55 AM 28.4 °F - 28.4 °F 100% 30.33 in 10.0 mi Calm Calm - N/A   Clear
2:15 AM 28.4 °F - 28.4 °F 100% 30.33 in 10.0 mi Calm Calm - N/A   Clear
2:35 AM 30.2 °F - 28.4 °F 93% 30.33 in 10.0 mi Calm Calm - N/A   Clear
2:55 AM 30.2 °F - 28.4 °F 93% 30.33 in 10.0 mi Calm Calm - N/A   Clear
3:15 AM 28.4 °F - 28.4 °F 100% 30.33 in 10.0 mi Calm Calm - N/A   Clear
3:35 AM 28.4 °F - 28.4 °F 100% 30.33 in 10.0 mi Calm Calm - N/A   Clear
3:50 AM 28.4 °F - 28.4 °F 100% 30.33 in 10.0 mi Calm Calm - N/A   Clear
4:15 AM 28.4 °F - 28.4 °F 100% 30.33 in 10.0 mi Calm Calm - N/A   Clear
4:35 AM 28.4 °F - 28.4 °F 100% 30.32 in 10.0 mi Calm Calm - N/A   Clear
5:15 AM 28.4 °F - 28.4 °F 100% 30.32 in 10.0 mi Calm Calm - N/A   Clear
5:35 AM 28.4 °F - 28.4 °F 100% 30.32 in 10.0 mi Calm Calm - N/A   Clear
5:55 AM 28.4 °F - 28.4 °F 100% 30.32 in 10.0 mi Calm Calm - N/A   Clear
6:15 AM 28.4 °F - 28.4 °F 100% 30.32 in 10.0 mi Calm Calm - N/A   Clear
6:35 AM 28.4 °F - 28.4 °F 100% 30.32 in 10.0 mi Calm Calm - N/A   Clear
6:55 AM 28.4 °F - 28.4 °F 100% 30.32 in 10.0 mi Calm Calm - N/A   Clear
7:15 AM 30.2 °F - 28.4 °F 93% 30.32 in 10.0 mi Calm Calm - N/A   Clear
7:35 AM 32.0 °F - 28.4 °F 87% 30.33 in 10.0 mi Calm Calm - N/A   Clear
7:55 AM 32.0 °F - 28.4 °F 87% 30.33 in 10.0 mi Calm Calm - N/A   Clear
8:15 AM 33.8 °F 30.8 °F 28.4 °F 81% 30.33 in 10.0 mi SE 3.5 mph - N/A   Clear
8:35 AM 37.4 °F - 30.2 °F 75% 30.33 in 10.0 mi Calm Calm - N/A   Clear
8:55 AM 39.2 °F - 30.2 °F 70% 30.33 in 10.0 mi Calm Calm - N/A   Clear
9:15 AM 41.0 °F - 32.0 °F 70% 30.34 in 10.0 mi Calm Calm - N/A   Clear
9:35 AM 42.8 °F 38.0 °F 32.0 °F 66% 30.34 in 10.0 mi South 8.1 mph - N/A   Clear
9:55 AM 44.6 °F 43.1 °F 30.2 °F 57% 30.34 in 10.0 mi SSE 3.5 mph - N/A   Clear
10:15 AM 46.4 °F 43.5 °F 32.0 °F 57% 30.33 in 10.0 mi South 5.8 mph - N/A   Clear
10:35 AM 46.4 °F 41.5 °F 30.2 °F 53% 30.33 in 10.0 mi South 10.4 mph - N/A   Clear
10:55 AM 48.2 °F - 30.2 °F 50% 30.32 in 10.0 mi SSE 5.8 mph - N/A   Clear
11:15 AM 50.0 °F - 30.2 °F 47% 30.31 in 10.0 mi SE 4.6 mph - N/A   Clear
11:35 AM 50.0 °F - 30.2 °F 47% - 10.0 mi North - - N/A   Clear
11:55 AM - - - N/A% - - North - - N/A   Unknown
12:15 PM 53.6 °F - 30.2 °F 41% - 10.0 mi South 9.2 mph - N/A   Clear
12:55 PM - - - N/A% - - North - - N/A   Unknown
1:35 PM 55.4 °F - 28.4 °F 36% 30.18 in 10.0 mi SSE 8.1 mph - N/A   Clear
1:55 PM 55.4 °F - 28.4 °F 36% 30.17 in 10.0 mi South 6.9 mph - N/A   Clear
2:15 PM 55.4 °F - 30.2 °F 38% 30.16 in 10.0 mi SE 4.6 mph - N/A   Clear
2:55 PM 55.4 °F - 30.2 °F 38% 30.14 in 10.0 mi SE 5.8 mph - N/A   Clear
3:15 PM 55.4 °F - 28.4 °F 36% 30.14 in 10.0 mi SSE 5.8 mph - N/A   Clear
3:35 PM 55.4 °F - 28.4 °F 36% 30.13 in 10.0 mi SE 4.6 mph - N/A   Clear
3:55 PM 55.4 °F - 28.4 °F 36% 30.13 in 10.0 mi SSE 3.5 mph - N/A   Clear
4:15 PM 55.4 °F - 28.4 °F 36% 30.12 in 10.0 mi SSE 4.6 mph - N/A   Clear
4:30 PM 53.6 °F - 28.4 °F 38% 30.12 in 10.0 mi SSE 3.5 mph - N/A   Clear
5:35 PM 46.4 °F - 28.4 °F 50% 30.12 in 10.0 mi Calm Calm - N/A   Clear
5:55 PM 44.6 °F - 28.4 °F 53% 30.13 in 10.0 mi Calm Calm - N/A   Clear
6:55 PM 44.6 °F - 28.4 °F 53% 30.13 in 10.0 mi Calm Calm - N/A   Clear
7:15 PM 44.6 °F 43.1 °F 28.4 °F 53% 30.12 in 10.0 mi SSE 3.5 mph - N/A   Clear
7:35 PM 44.6 °F - 26.6 °F 49% 30.12 in 10.0 mi Calm Calm - N/A   Clear
7:55 PM 42.8 °F - 26.6 °F 53% 30.12 in 10.0 mi Calm Calm - N/A   Clear
8:15 PM 41.0 °F - 26.6 °F 57% 30.12 in 10.0 mi Calm Calm - N/A   Clear
8:35 PM 41.0 °F - 26.6 °F 57% 30.12 in 10.0 mi Calm Calm - N/A   Clear
8:55 PM 39.2 °F - 26.6 °F 61% 30.11 in 10.0 mi Calm Calm - N/A   Clear
9:15 PM 37.4 °F - 26.6 °F 65% 30.11 in 10.0 mi Calm Calm - N/A   Clear
10:15 PM 37.4 °F - 26.6 °F 65% 30.11 in 10.0 mi Calm Calm - N/A   Clear
10:35 PM 37.4 °F - 26.6 °F 65% 30.12 in 10.0 mi Calm Calm - N/A   Clear
10:55 PM 37.4 °F - 28.4 °F 70% 30.12 in 10.0 mi Calm Calm - N/A   Clear
11:15 PM 37.4 °F - 26.6 °F 65% 30.12 in 10.0 mi Calm Calm - N/A   Clear
11:35 PM 37.4 °F - 26.6 °F 65% 30.11 in 10.0 mi Calm Calm - N/A   Clear
11:55 PM 37.4 °F - 26.6 °F 65% 30.11 in 10.0 mi Calm Calm - N/A   Clear